Regional Weather Roundup
Issued by NWS Sterling, VA

Home | Current Version | Previous Version | Text Only | Print | Product List | Glossary On
Versions: 1 2 3 4 5 6 7 8 9 10 11 12 13 14 15 16 17 18 19 20 21 22 23 24 25 26 27 28 29 30 31 32 33 34 35 36 37 38 39 40 41 42 43 44 45 46 47 48 49 50
000
ASUS41 KLWX 231010
RWRLWX

REGIONAL WEATHER ROUNDUP
NATIONAL WEATHER SERVICE BALTIMORE MD/WASHINGTON DC
500 AM EST SUN NOV 23 2014

Note: "FAIR" indicates few or no clouds below 12,000 feet
with no significant weather and/or obstructions to visibility.
 TC=TEMPERATURE CELSIUS

 * =Non NWS site. Station does not report precipitation (e.g. rain,
    snow, etc.), thunder, or fog.

DCZ001-MDZ009-015-VAZ040>042-051-053>054-231100-
WASHINGTON METRO

CITY           SKY/WX    TMP DP  RH WIND       PRES   REMARKS
WASHINGTON NAT PTCLDY    41  19  41 SW5       30.23R
DULLES         PTCLDY    37  18  46 S6        30.19F
ANDREWS AFB    PTCLDY    40  18  41 SW10      30.20R
FT BELVOIR     PTCLDY    40  20  44 VRB2      30.22S
QUANTICO       CLEAR     41  22  46 SW7       30.24R
COLLEGE PARK*  PTCLDY    41  19  42 CALM      30.20S
LEESBURG*      MOCLDY    36  25  64 S5        30.19F
MANASSAS*      PTCLDY    30  27  86 CALM      30.21R
GAITHERSBURG*  CLOUDY    37  18  44 CALM      30.22S

$$

MDZ006>007-011-014-231100-
BALTIMORE METRO

CITY           SKY/WX    TMP DP  RH WIND       PRES   REMARKS
BWI AIRPORT    PTCLDY    42  18  37 SW6       30.19S
MD SCIENCE CTR   N/A     43  19  38 MISG      30.20S
MARTIN STATE   CLEAR     37  28  70 CALM      30.22R
ANNAPOLIS      PTCLDY    41  17  38 S5        30.20S
FORT MEADE*    CLEAR     36  19  51 SW5       30.22S

$$

MDZ012-015-019>023-231100-
MARYLAND EASTERN SHORE

CITY           SKY/WX    TMP DP  RH WIND       PRES   REMARKS
OCEAN CITY     PTCLDY    43  27  53 SW9       30.26F
SALISBURY      PTCLDY    38  29  70 S8        30.25S
BAY BRIDGE AP*   N/A     45  19  36 S9        30.21S
CAMBRIDGE*     CLEAR     39  25  56 S5        30.22F
EASTON*        CLEAR     40  24  54 SW8       30.25F

$$

MDZ017>025-231100-
SOUTHERN MARYLAND

CITY           SKY/WX    TMP DP  RH WIND       PRES   REMARKS
PATUXENT RIVER CLEAR     42  18  37 S5        30.23F
ST INIGOES     CLEAR     43  21  41 S10       30.24F
LEONARDTOWN*   CLEAR     43  18  36 SW7       30.24F

$$

MDZ003>005-231100-
NORTH CENTRAL MARYLAND

CITY           SKY/WX    TMP DP  RH WIND       PRES   REMARKS
FREDERICK*     CLOUDY    39  23  52 CALM      30.21R
HAGERSTOWN APT MOCLDY    42  18  37 CALM      30.16R
WESTMINSTER*   CLOUDY    39  19  45 SW6       30.16S

$$

MDZ501>502-231100-
WESTERN MARYLAND

CITY           SKY/WX    TMP DP  RH WIND       PRES   REMARKS
OAKLAND*       MOCLDY    45  18  33 SW10G16   30.13S
CUMBERLAND*    MOCLDY    32  25  74 N3        30.19R

$$

VAZ025>031-231100-
SHENANDOAH VALLEY

CITY           SKY/WX    TMP DP  RH WIND       PRES   REMARKS
WINCHESTER*    MOCLDY    43  12  28 SW10G16   30.15F
FRONT ROYAL*   FAIR      41  21  45 S5        30.16S
LURAY*         FAIR      43  23  45 SW8       30.18S
NEW MARKET*    FAIR      33  22  65 CALM      30.18S
STAUNTON*      PTCLDY    38  19  47 S7        30.21S
WAYNESBORO*    FAIR      29  20  67 CALM      30.19S

$$

WVZ021-048>050-054>055-231100-
EASTERN WEST VIRGINIA PANHANDLE

CITY           SKY/WX    TMP DP  RH WIND       PRES   REMARKS
MARTINSBURG    MOCLDY    43  19  38 S5        30.16S
PETERSBURG*    PTCLDY    35  23  61 NW3       30.15S

$$

VAZ036>039-050-231100-
CENTRAL FOOTHILLS

CITY           SKY/WX    TMP DP  RH WIND       PRES   REMARKS
CHARLOTTESVILL PTCLDY    35  19  52 S6        30.19F
CULPEPER*      PTCLDY    30  21  69 CALM      30.21R
ORANGE*        PTCLDY    37  21  52 S5        30.22R
GORDONSVILLE*  FAIR      33  20  59 SW6       30.20S
WARRENTON*     FAIR      35  26  69 CALM      30.20R

$$

VAZ055>057-231100-
NORTH AND CENTRAL PIEDMONT

CITY           SKY/WX    TMP DP  RH WIND       PRES   REMARKS
FREDERICKSBRG* CLEAR     37  19  48 CALM      30.22S
STAFFORD*      CLEAR     36  15  43 CALM      30.26R

$$

NCZ024-NYZ072-PAZ021-071-VAZ022-071-231100-
OTHER REGIONAL OBSERVATIONS

CITY           SKY/WX    TMP DP  RH WIND       PRES   REMARKS
NEW YORK CITY  CLOUDY    44  22  41 VRB3G18   30.20R
PHILADELPHIA   CLOUDY    41  23  48 W6        30.23R
PITTSBURGH     CLOUDY    48  32  53 S3        30.08F
ROANOKE        MOCLDY    31  21  66 CALM      30.28R
RICHMOND       MOCLDY    36  20  52 S7        30.26F
RALEIGH        CLOUDY    39  30  70 CALM      30.27F

$$

ANZ530>537-231100-
MARINE OBSERVATIONS

STATION/POSITION TIME  TEMP    WIND        PRES
                       AIR SEA DIR/SP/G
                 (UTC) (F)     (DEG/KT/KT) (MB)
THOMAS PT LIGHT  1000   46 47  200/ 16/ 17 1024.2S
BALT KEY BRIDGE  1000   44     180/  3/  4 1022.5F
COVE POINT       1000   44     200/ 10/ 12 1023.3F
LEWISETTA        1000   42 42  220/ 10/ 11 1023.7F
SOLOMONS ISLAND  1000      47                N/A
PINEY POINT      1000          240/  7/  8   N/A

$$



USA.gov is the U.S. government's official web portal to all federal, state and local government web resources and services.